Flag for Canada Weather past 2 weeks in Arctic Bay, Nunavut, Canada

Now
52 °F

Sunny.


Feels Like: 48 °F
Forecast: 42 / 51 °F
Wind: 12 mph from Northeast

Location: Pond Inlet

Current Time: Aug 2, 2015 at 12:34:15 PM

Latest Report: Aug 2, 2015 at 12:00 PM


Visibility: 9 mi

Pressure: 30.16 "Hg

Humidity: 44%

Dew point: 30 °F

Location of Arctic BayLocation

Historic Weather in Arctic Bay — Graph

°F

Arctic Bay temperature yesterday

Maximum temperature yesterday: 55 °F (at 4:00 PM)
Minimum temperature yesterday: 41 °F (at 12:00 AM)
Average temperature yesterday: 46 °F

Past Weeks' High & Low Weather Summary

 TemperatureHumidityPressure
High64 °F (Jul 23, 4:00 PM)93% (Jul 27, 4:00 AM)30.18 "Hg (Jul 27, 4:00 AM)
Low36 °F (Jul 27, 4:00 AM)38% (Aug 2, 9:00 AM)29.85 "Hg (Jul 27, 5:00 PM)
Average47 °F69%30.03 "Hg
* Reported Jul 18 11:00 AM — Aug 2 11:00 AM, Arctic Bay, Weather by CustomWeather, © 2015

Note: Actual official high and low records may vary slightly from our data, if they occured in-between our weather recording intervals... More about our weather records

Advertising

Arctic Bay weather history for previous 24 hours

 ConditionsComfort  
Time TempWeatherWind HumidityBarometerVisibility
11:00 AM
Sun, Aug 2
52 °FSunny.15 mph44%30.16 "Hg9 mi
10:00 AM52 °FSunny.13 mph41%30.16 "Hg9 mi
9:00 AM52 °FSunny.10 mph38%30.16 "Hg9 mi
8:00 AM50 °FSunny.5 mph43%30.16 "Hg9 mi
7:00 AM48 °FSunny.2 mph58%30.15 "Hg9 mi
6:00 AM48 °FSunny.3 mph46%30.15 "Hg9 mi
5:00 AM45 °FSunny.5 mph57%30.14 "Hg9 mi
4:00 AM46 °FSunny.3 mph53%30.14 "Hg9 mi
3:00 AM45 °FSunny.15 mph57%30.13 "Hg9 mi
2:00 AM43 °FSunny.10 mph66%30.12 "Hg9 mi
1:00 AM45 °FSunny.14 mph61%30.12 "Hg9 mi
12:00 AM45 °FSunny.14 mph57%30.12 "Hg9 mi
11:00 PM
Sat, Aug 1
46 °FSunny.14 mph57%30.12 "Hg9 mi
10:00 PM46 °FSunny.14 mph62%30.11 "Hg9 mi
9:00 PM48 °FSunny.16 mph58%30.11 "Hg9 mi
8:00 PM48 °FSunny.16 mph58%30.11 "Hg9 mi
7:00 PM52 °FSunny.20 mph50%30.11 "Hg9 mi
6:00 PM48 °FSunny.21 mph62%30.10 "Hg9 mi
5:00 PM55 °FScattered clouds.22 mph47%30.10 "Hg35 mi
4:00 PM55 °FScattered clouds.23 mph44%30.09 "Hg35 mi
3:00 PM52 °FScattered clouds.18 mph54%30.09 "Hg40 mi
2:00 PM46 °FScattered clouds.20 mph66%30.09 "Hg40 mi
1:00 PM48 °FSunny.20 mph62%30.09 "Hg9 mi
12:00 PM46 °FSunny.17 mph66%30.10 "Hg9 mi
Weather by CustomWeather, © 2015

See weather overviewHow to use our weather pages